Air Resources Laboratory banner image
Air Resources Laboratory web site National Oceanic and Atmospheric Administration (NOAA)

wa zone


SCZ050-WAZ558-NCZ071-TXZ119-213-PAZ071-DCZ001-FLZ074-172-MI076-
NYZ176-178-MAZ016-IL014-TNZ027-NJZ106-GAZ044-MD014-181400-

...Gateway Observations for Charleston International...

CITY           SKY/WX    TMP DP  RH WIND       PRES   REMARKS
Chas Airport   PTSUNNY   65  47  52 NE10      30.33R
Seattle        CLEAR     51  40  65 SE3       30.15R
Charlotte      PTSUNNY   55  41  59 NE13      30.40R
Dallas DFW     CLOUDY    57  51  80 NE7       30.36S
Dallas Love    CLOUDY    58  52  80 NE6       30.37S
Philladelphia  FAIR      44  29  55 W8        30.39R
Wash National  FAIR      51  29  42 NW9       30.45R
Baltimore      FAIR      48  31  51 W8        30.41R
Miami          FAIR      83  74  74 E13       30.13R
Detroit        FAIR      32  27  81 CALM      30.52R
Newark         FAIR      44  22  41 NW17G26   30.35R
Laguardia      FAIR      45  28  51 NW16G23   30.34R
J F K          FAIR      44  25  47 NW21G28   30.34R
Boston Logan   FAIR      41  20  43 W22G30    30.19R
Ft. Lauderdale FAIR      83  77  82 E16       30.13R HX  92
Chicago O'Hare FAIR      36  28  73 CALM      30.52R
Chicago Midway FAIR      37  28  70 W3        30.52R
Houston Bush   CLOUDY    58  56  93 NE10      30.24R
Houston Hobby  CLOUDY    59  54  83 NE10      30.22F
Nashville      PTSUNNY   48  37  65 NE9       30.46S
Atlanta        PTSUNNY   57  46  66 N8        30.35R


SCZ050-WAZ558-NCZ071-TXZ119-213-PAZ071-DCZ001-FLZ074-172-MI076-
NYZ176-178-MAZ016-IL014-TNZ027-NJZ106-GAZ044-MD014-181400-

...Gateway Observations for Charleston International...

CITY           SKY/WX    TMP DP  RH WIND       PRES   REMARKS
Chas Airport   PTSUNNY   65  47  52 NE10      30.33R
Seattle        CLEAR     51  40  65 SE3       30.15R
Charlotte      PTSUNNY   55  41  59 NE13      30.40R
Dallas DFW     CLOUDY    57  51  80 NE7       30.36S
Dallas Love    CLOUDY    58  52  80 NE6       30.37S
Philladelphia  FAIR      44  29  55 W8        30.39R
Wash National  FAIR      51  29  42 NW9       30.45R
Baltimore      FAIR      48  31  51 W8        30.41R
Miami          FAIR      83  74  74 E13       30.13R
Detroit        FAIR      32  27  81 CALM      30.52R
Newark         FAIR      44  22  41 NW17G26   30.35R
Laguardia      FAIR      45  28  51 NW16G23   30.34R
J F K          FAIR      44  25  47 NW21G28   30.34R
Boston Logan   FAIR      41  20  43 W22G30    30.19R
Ft. Lauderdale FAIR      83  77  82 E16       30.13R HX  92
Chicago O'Hare FAIR      36  28  73 CALM      30.52R
Chicago Midway FAIR      37  28  70 W3        30.52R
Houston Bush   CLOUDY    58  56  93 NE10      30.24R
Houston Hobby  CLOUDY    59  54  83 NE10      30.22F
Nashville      PTSUNNY   48  37  65 NE9       30.46S
Atlanta        PTSUNNY   57  46  66 N8        30.35R